Flag for Panama Weather past 2 weeks in Colón, Panama

Now
86 °F

Passing clouds.


Feels Like: 92 °F
Forecast: 77 / 84 °F
Wind: 9 mph from North

Location: Marcos A. Gelabert

Current Time: Dec 18, 2014 at 12:45:36 PM

Latest Report: Dec 18, 2014 at 12:00 PM


Visibility: N/A

Pressure: 29.92 "Hg

Humidity: 62%

Dew point: 72 °F

Location of ColónLocation

Historic Weather in Colón — Graph

°F

Colón temperature yesterday

Maximum temperature yesterday: 88 °F (at 3:00 PM)
Minimum temperature yesterday: 77 °F (at 6:00 AM)
Average temperature yesterday: 82 °F

Past Weeks' High & Low Weather Summary

 TemperatureHumidityPressure
High90 °F (Dec 12, 1:00 PM)100% (Dec 6, 6:00 AM)29.98 "Hg (Dec 6, 6:00 AM)
Low73 °F (Dec 12, 6:00 AM)55% (Dec 9, 12:00 PM)29.68 "Hg (Dec 3, 3:00 PM)
Average80 °F84%29.86 "Hg
* Reported Dec 3 11:00 AM — Dec 18 11:00 AM, Colón, Weather by CustomWeather, © 2014

Note: Actual official high and low records may vary slightly from our data, if they occured in-between our weather recording intervals... More about our weather records

Advertising

Colón weather history for previous 24 hours

 ConditionsComfort  
Time TempWeatherWind HumidityBarometerVisibility
11:00 AM
Dec 18
84 °FPassing clouds.10 mph66%29.95 "Hg6 mi
10:00 AM82 °FPassing clouds.7 mph74%29.95 "Hg6 mi
9:00 AM81 °FPassing clouds.5 mph79%29.95 "Hg6 mi
8:00 AM77 °FPassing clouds.3 mph89%29.95 "Hg6 mi
7:00 AM75 °FPassing clouds.5 mph94%29.92 "Hg6 mi
10:00 PM
Dec 17
79 °FPassing clouds.5 mph89%29.92 "HgN/A
9:00 PM79 °FPassing clouds.8 mph79%29.92 "HgN/A
8:00 PM81 °FPassing clouds.8 mph74%29.89 "HgN/A
7:00 PM81 °FPassing clouds.8 mph84%29.89 "HgN/A
6:00 PM82 °FPassing clouds.14 mph79%29.86 "HgN/A
5:00 PM84 °FPassing clouds.14 mph74%29.83 "HgN/A
4:00 PM86 °FPassing clouds.14 mph70%29.83 "HgN/A
3:00 PM88 °FPassing clouds.14 mph59%29.83 "HgN/A
2:00 PM86 °FScattered clouds.12 mph70%29.86 "HgN/A
1:00 PM86 °FScattered clouds.8 mph75%29.89 "HgN/A
12:00 PM86 °FScattered clouds.12 mph75%29.92 "HgN/A
Weather by CustomWeather, © 2014

See weather overviewHow to use our weather pages